This is the latest recevied weather packets stored in our database for station/object IW2NIA-3. If no packets are shown the sender has not sent any weather packets the latest 10 day(s).
| Time | Temp. | Humidity | Pressure | Rain* | Wind** | Luminosity | Snow |
|---|---|---|---|---|---|---|---|
| 1787726916 | 22.22° C | 85% | 1016.5 hPa | 0 mm | - | - | - |
| 1787726012 | 22.22° C | 86% | 1016.5 hPa | 0 mm | - | - | - |
| 1787725104 | 21.67° C | 87% | 1016.5 hPa | 0 mm | - | - | - |
| 1787724223 | 21.11° C | 88% | 1016.4 hPa | 0 mm | - | - | - |
| 1787723313 | 21.11° C | 88% | 1016.3 hPa | 0 mm | - | - | - |
| 1787722408 | 21.11° C | 88% | 1016.1 hPa | 0 mm | - | - | - |
| 1787721504 | 21.11° C | 88% | 1016 hPa | 0 mm | - | - | - |
| 1787720617 | 20.56° C | 88% | 1015.8 hPa | 0 mm | - | - | - |
| 1787719711 | 20.56° C | 88% | 1015.7 hPa | 0 mm | - | - | - |
| 1787718824 | 20.56° C | 88% | 1015.5 hPa | 0 mm | - | - | - |
| 1787717912 | 20.56° C | 88% | 1015.5 hPa | 0 mm | - | - | - |
| 1787717026 | 20.56° C | 88% | 1015.4 hPa | 0 mm | - | - | - |
| 1787716122 | 20.56° C | 88% | 1015.4 hPa | 0 mm | - | - | - |
| 1787715206 | 20.56° C | 88% | 1015.3 hPa | 0 mm | - | - | - |
| 1787714317 | 21.11° C | 88% | 1015.3 hPa | 0 mm | - | - | - |
| 1787713411 | 21.11° C | 88% | 1015.2 hPa | 0 mm | - | - | - |
| 1787712509 | 20.56° C | 88% | 1015.2 hPa | 0 mm | - | - | - |
| 1787711624 | 20.56° C | 88% | 1015.2 hPa | 0 mm | - | - | - |
| 1787710721 | 20.56° C | 89% | 1015.2 hPa | 0 mm | - | - | - |
| 1787709813 | 20.56° C | 89% | 1015.2 hPa | 0 mm | - | - | - |
| 1787708907 | 20° C | 89% | 1015.1 hPa | 0 mm | - | - | - |
| 1787708021 | 20° C | 89% | 1015.2 hPa | 0 mm | - | - | - |
| 1787707115 | 20° C | 89% | 1015 hPa | 0 mm | - | - | - |
| 1787706212 | 20° C | 89% | 1015 hPa | 0 mm | - | - | - |
| 1787705311 | 20° C | 89% | 1014.8 hPa | 0 mm | - | - | - |
* Rain latest hour (hover to see other rain measurements)
** Current wind speed in m/s (hover to see current wind gust speed)